Flag Weather past 2 weeks in Toulouse, France

Now
63 °F

Clear.


Feels Like: 63 °F
Forecast: 56 / 59 °F
Wind: 24 mph from East

Location: Toulouse / Blagnac

Current Time: Nov 29, 2014 at 12:24:59 AM

Latest Report: Nov 29, 2014 at 12:00 AM


Visibility: N/A

Pressure: 29.45 "Hg

Humidity: 68%

Dew point: 52 °F

Location of ToulouseLocation

Historic Weather in Toulouse — Graph

°F

Toulouse temperature yesterday

Maximum temperature yesterday: 68 °F (at 12:00 PM)
Minimum temperature yesterday: 59 °F (at 12:00 AM)
Average temperature yesterday: 63 °F

Past Weeks' High & Low Weather Summary

 TemperatureHumidityPressure
High68 °F (Nov 22, 1:00 PM)100% (Nov 14, 8:30 PM)30.12 "Hg (Nov 14, 8:30 PM)
Low41 °F (Nov 19, 4:00 AM)52% (Nov 28, 4:00 PM)29.24 "Hg (Nov 28, 7:30 AM)
Average56 °F84%29.84 "Hg
* Reported Nov 13 11:00 PM — Nov 28 11:00 PM, Toulouse, Weather by CustomWeather, © 2014

Note: Actual official high and low records may vary slightly from our data, if they occured in-between our weather recording intervals... More about our weather records

Advertising

Toulouse weather history for previous 24 hours

 ConditionsComfort  
Time TempWeatherWind HumidityBarometerVisibility
11:00 PM
Nov 28
63 °FClear.23 mph64%29.45 "HgN/A
10:30 PM64 °FClear.20 mph60%29.45 "HgN/A
10:00 PM64 °FClear.28 mph64%29.42 "HgN/A
9:30 PM64 °FClear.25 mph68%29.42 "HgN/A
9:00 PM64 °FClear.24 mph64%29.39 "HgN/A
8:30 PM63 °FClear.20 mph77%29.39 "HgN/A
8:00 PM63 °FPassing clouds.22 mph68%29.39 "HgN/A
7:30 PM63 °FClear.21 mph68%29.39 "HgN/A
7:00 PM64 °FClear.24 mph68%29.36 "HgN/A
6:30 PM64 °FClear.26 mph64%29.36 "HgN/A
6:00 PM64 °FClear.25 mph64%29.33 "HgN/A
5:30 PM64 °FLow clouds.22 mph60%29.33 "HgN/A
5:00 PM64 °FPartly sunny.24 mph60%29.30 "HgN/A
4:30 PM64 °FClear.28 mph64%29.30 "HgN/A
4:00 PM66 °FClear.21 mph52%29.27 "HgN/A
3:30 PM68 °FClear.21 mph53%29.27 "HgN/A
3:00 PM66 °FClear.22 mph56%29.24 "HgN/A
2:30 PM66 °FClear.22 mph60%29.24 "HgN/A
2:00 PM66 °FClear.22 mph60%29.24 "HgN/A
1:30 PM68 °FClear.21 mph56%29.24 "HgN/A
1:00 PM68 °FClear.25 mph53%29.24 "HgN/A
12:30 PM68 °FClear.24 mph53%29.24 "HgN/A
12:00 PM68 °FClear.22 mph53%29.24 "HgN/A
11:30 AM66 °FClear.24 mph56%29.24 "HgN/A
11:00 AM64 °FClear.18 mph60%29.24 "HgN/A
10:30 AM63 °FClear.15 mph68%29.24 "HgN/A
10:00 AM63 °FClear.16 mph64%29.24 "HgN/A
9:30 AM63 °FScattered clouds.13 mph68%29.24 "HgN/A
9:00 AM61 °FClear.12 mph72%29.24 "HgN/A
8:30 AM61 °FClear.13 mph77%29.24 "HgN/A
8:00 AM61 °FPassing clouds.12 mph77%29.24 "HgN/A
7:30 AM61 °FOvercast.13 mph77%29.24 "HgN/A
7:00 AM61 °FLight rain. Clear.17 mph77%29.30 "HgN/A
6:30 AM61 °FClear.24 mph72%29.27 "HgN/A
6:00 AM63 °FClear.22 mph68%29.30 "HgN/A
5:30 AM61 °FClear.16 mph72%29.30 "HgN/A
4:30 AM61 °FClear.21 mph72%29.30 "HgN/A
4:00 AM61 °FClear.20 mph72%29.30 "HgN/A
3:30 AM61 °FClear.22 mph68%29.30 "HgN/A
3:00 AM59 °FClear.15 mph72%29.33 "HgN/A
2:30 AM59 °FClear.15 mph72%29.33 "HgN/A
2:00 AM59 °FClear.20 mph72%29.33 "HgN/A
1:30 AM59 °FClear.20 mph68%29.36 "HgN/A
1:00 AM59 °FClear.23 mph68%29.36 "HgN/A
12:30 AM59 °FClear.23 mph68%29.36 "HgN/A
12:00 AM59 °FClear.23 mph68%29.36 "HgN/A
Weather by CustomWeather, © 2014

See weather overviewHow to use our weather pages